FW4117 Weather Reports


time (UTC)temp
C
wind
direction
speed
KPH
gust
KPH
rain 1hr
cm
rain 24hr
cm
rain mn
cm
humidity
%
barometer
mb
20260906230003 37 107 4.8 12.9 0.00 0.00 0.00 43 1010.3
20260906225503 37 108 4.8 12.9 0.00 0.00 0.00 42 1010.3
20260906225003 37 115 3.2 12.9 0.00 0.00 0.00 42 1010.2
20260906224503 37 90 3.2 11.3 0.00 0.00 0.00 43 1010.2
20260906224003 37 78 4.8 11.3 0.00 0.00 0.00 43 1010.2
20260906223714 37 68 4.8 14.5 0.00 0.00 0.00 43 1010.3
20260906223003 37 53 6.4 17.7 0.00 0.00 0.00 43 1010.4
20260906222503 37 53 4.8 17.7 0.00 0.00 0.00 42 1010.4
20260906222003 37 56 4.8 9.7 0.00 0.00 0.00 43 1010.4
20260906221503 37 62 4.8 12.9 0.00 0.00 0.00 43 1010.5
20260906221003 37 68 4.8 14.5 0.00 0.00 0.00 44 1010.5
20260906220503 37 78 4.8 14.5 0.00 0.00 0.00 44 1010.4
20260906220003 37 93 4.8 12.9 0.00 0.00 0.00 44 1010.5
20260906215503 37 98 4.8 12.9 0.00 0.00 0.00 43 1010.6
20260906215003 36 92 3.2 11.3 0.00 0.00 0.00 45 1010.7
20260906214503 36 95 3.2 8.0 0.00 0.00 0.00 45 1010.7
20260906214003 36 84 4.8 8.0 0.00 0.00 0.00 45 1010.9
20260906213503 36 87 4.8 11.3 0.00 0.00 0.00 45 1010.9
20260906213003 37 95 4.8 14.5 0.00 0.00 0.00 44 1010.9
20260906212503 37 84 4.8 14.5 0.00 0.00 0.00 43 1011.1
20260906212003 37 80 6.4 16.1 0.00 0.00 0.00 42 1011.1
20260906211503 37 86 4.8 16.1 0.00 0.00 0.00 43 1011.2
20260906211003 37 72 4.8 14.5 0.00 0.00 0.00 45 1011.2
20260906210503 37 61 4.8 14.5 0.00 0.00 0.00 44 1011.4
20260906210003 37 56 3.2 12.9 0.00 0.00 0.00 44 1011.4
20260906205503 37 65 4.8 14.5 0.00 0.00 0.00 45 1011.5
20260906205003 37 74 4.8 14.5 0.00 0.00 0.00 45 1011.5
20260906204713 37 75 4.8 14.5 0.00 0.00 0.00 46 1011.7
20260906204003 37 66 4.8 14.5 0.00 0.00 0.00 45 1011.7
20260906203503 37 71 3.2 14.5 0.00 0.00 0.00 46 1011.6
20260906203003 36 67 4.8 14.5 0.00 0.00 0.00 46 1011.7
20260906202503 36 67 6.4 17.7 0.00 0.00 0.00 45 1011.9
20260906202003 36 81 4.8 17.7 0.00 0.00 0.00 46 1011.8
20260906201503 36 84 4.8 17.7 0.00 0.00 0.00 45 1011.8
20260906201003 36 81 4.8 16.1 0.00 0.00 0.00 46 1011.8
20260906200503 36 78 6.4 16.1 0.00 0.00 0.00 44 1012.0
20260906200003 36 72 4.8 12.9 0.00 0.00 0.00 46 1012.0
20260906195712 36 75 3.2 11.3 0.00 0.00 0.00 47 1012.0
20260906195003 37 86 6.4 16.1 0.00 0.00 0.00 46 1012.0
20260906194503 36 77 4.8 19.3 0.00 0.00 0.00 46 1012.1
20260906194003 37 78 3.2 19.3 0.00 0.00 0.00 46 1012.1
20260906193503 37 72 4.8 16.1 0.00 0.00 0.00 46 1012.2
20260906193003 37 66 4.8 16.1 0.00 0.00 0.00 46 1012.3
20260906192503 37 73 4.8 12.9 0.00 0.00 0.00 48 1012.3
20260906192003 36 75 6.4 12.9 0.00 0.00 0.00 47 1012.4
20260906191503 36 82 4.8 12.9 0.00 0.00 0.00 47 1012.4
20260906191003 37 97 4.8 16.1 0.00 0.00 0.00 47 1012.5
20260906190503 37 97 6.4 16.1 0.00 0.00 0.00 47 1012.5
20260906190003 37 101 6.4 22.5 0.00 0.00 0.00 46 1012.6
20260906185712 36 96 6.4 22.5 0.00 0.00 0.00 47 1012.6
20260906185003 36 87 6.4 14.5 0.00 0.00 0.00 48 1012.6
20260906184503 36 99 6.4 14.5 0.00 0.00 0.00 48 1012.7
20260906184003 36 95 8.0 19.3 0.00 0.00 0.00 48 1012.7
20260906183503 36 85 4.8 19.3 0.00 0.00 0.00 48 1012.8
20260906183003 36 90 4.8 14.5 0.00 0.00 0.00 49 1012.8
20260906182503 36 93 4.8 14.5 0.00 0.00 0.00 49 1012.8
20260906182213 36 92 4.8 22.5 0.00 0.00 0.00 49 1012.9
20260906181714 35 76 4.8 22.5 0.00 0.00 0.00 49 1013.0
20260906181213 36 63 4.8 12.9 0.00 0.00 0.00 50 1013.0
20260906180503 36 74 4.8 12.9 0.00 0.00 0.00 50 1013.2
20260906180003 36 96 4.8 12.9 0.00 0.00 0.00 49 1013.2
20260906175503 36 107 4.8 12.9 0.00 0.00 0.00 50 1013.3
20260906175003 36 100 4.8 12.9 0.00 0.00 0.00 50 1013.4
20260906174503 35 76 4.8 12.9 0.00 0.00 0.00 51 1013.4
20260906174003 36 53 4.8 16.1 0.00 0.00 0.00 51 1013.6
20260906173714 36 50 4.8 16.1 0.00 0.00 0.00 51 1013.6
20260906173003 35 61 4.8 14.5 0.00 0.00 0.00 51 1013.7
20260906172714 35 63 4.8 14.5 0.00 0.00 0.00 51 1013.8
20260906172213 35 62 4.8 12.9 0.00 0.00 0.00 52 1013.8
20260906171503 35 67 4.8 11.3 0.00 0.00 0.00 53 1013.8
20260906171003 35 68 4.8 12.9 0.00 0.00 0.00 55 1013.8
20260906170503 35 57 4.8 12.9 0.00 0.00 0.00 53 1013.9
20260906170003 35 71 4.8 9.7 0.00 0.00 0.00 53 1013.9
20260906165714 35 83 4.8 9.7 0.00 0.00 0.00 54 1014.0
20260906165003 34 93 3.2 9.7 0.00 0.00 0.00 55 1014.1
20260906164503 35 72 3.2 6.4 0.00 0.00 0.00 55 1014.3
20260906164003 34 53 3.2 6.4 0.00 0.00 0.00 56 1014.3
20260906163503 34 52 3.2 8.0 0.00 0.00 0.00 57 1014.3
20260906163212 34 69 3.2 12.9 0.00 0.00 0.00 57 1014.3
20260906162713 34 88 4.8 12.9 0.00 0.00 0.00 57 1014.3
20260906162003 34 62 3.2 12.9 0.00 0.00 0.00 57 1014.2
20260906161503 34 71 3.2 11.3 0.00 0.00 0.00 57 1014.3
20260906161003 34 83 3.2 9.7 0.00 0.00 0.00 58 1014.3
20260906160713 33 96 3.2 6.4 0.00 0.00 0.00 59 1014.3
20260906160003 33 102 3.2 12.9 0.00 0.00 0.00 59 1014.3
20260906155503 33 98 3.2 12.9 0.00 0.00 0.00 59 1014.3
20260906155003 33 116 3.2 11.3 0.00 0.00 0.00 60 1014.2
20260906154503 33 102 3.2 11.3 0.00 0.00 0.00 62 1014.3
20260906154003 33 89 3.2 8.0 0.00 0.00 0.00 61 1014.2
20260906153503 33 98 3.2 9.7 0.00 0.00 0.00 62 1014.2
20260906153003 33 91 3.2 11.3 0.00 0.00 0.00 63 1014.0
20260906152713 33 88 3.2 11.3 0.00 0.00 0.00 64 1014.0
20260906152003 32 142 1.6 6.4 0.00 0.00 0.00 65 1014.0
20260906151503 32 123 3.2 9.7 0.00 0.00 0.00 65 1013.9
20260906151003 32 115 3.2 9.7 0.00 0.00 0.00 66 1013.9
20260906150713 32 100 1.6 6.4 0.00 0.00 0.00 66 1013.9
20260906150003 32 65 1.6 6.4 0.00 0.00 0.00 67 1013.7
20260906145503 31 75 1.6 6.4 0.00 0.00 0.00 68 1013.7
20260906145003 31 85 1.6 9.7 0.00 0.00 0.00 68 1013.6
20260906144503 31 69 1.6 9.7 0.00 0.00 0.00 69 1013.6
20260906144003 31 62 1.6 4.8 0.00 0.00 0.00 70 1013.8
20260906143503 31 75 1.6 4.8 0.00 0.00 0.00 70 1013.7
20260906143003 31 77 1.6 4.8 0.00 0.00 0.00 70 1013.7
20260906142503 31 76 1.6 4.8 0.00 0.00 0.00 70 1013.7
20260906142003 30 72 1.6 6.4 0.00 0.00 0.00 72 1013.7
20260906141503 30 60 1.6 6.4 0.00 0.00 0.00 72 1013.6
20260906141003 30 37 1.6 6.4 0.00 0.00 0.00 73 1013.7
20260906140503 29 28 1.6 3.2 0.00 0.00 0.00 73 1013.7
20260906140213 29 27 0.0 3.2 0.00 0.00 0.00 74 1013.6
20260906135503 29 0 0.0 0.0 0.00 0.00 0.00 75 1013.8
20260906135213 28 0 0.0 0.0 0.00 0.00 0.00 75 1013.9
20260906134503 28 0 0.0 0.0 0.00 0.00 0.00 76 1013.8
20260906134003 28 0 0.0 0.0 0.00 0.00 0.00 77 1013.8
20260906133503 28 0 0.0 0.0 0.00 0.00 0.00 78 1013.9
20260906133003 27 0 0.0 0.0 0.00 0.00 0.00 79 1013.9
20260906132503 27 0 0.0 0.0 0.00 0.00 0.00 80 1013.8
20260906132003 27 0 0.0 0.0 0.00 0.00 0.00 80 1013.9
20260906131503 27 0 0.0 0.0 0.00 0.00 0.00 82 1013.9
20260906131003 26 0 0.0 0.0 0.00 0.00 0.00 82 1013.7
20260906130503 26 0 0.0 0.0 0.00 0.00 0.00 84 1013.7
20260906130213 26 0 0.0 0.0 0.00 0.00 0.00 84 1013.6
20260906125503 26 0 0.0 0.0 0.00 0.00 0.00 85 1013.6
20260906125003 25 0 0.0 0.0 0.00 0.00 0.00 86 1013.5
20260906124503 25 0 0.0 0.0 0.00 0.00 0.00 86 1013.5
20260906124003 25 0 0.0 0.0 0.00 0.00 0.00 86 1013.5
20260906123714 25 0 0.0 0.0 0.00 0.00 0.00 87 1013.4
20260906123003 25 0 0.0 0.0 0.00 0.00 0.00 86 1013.4
20260906122503 25 0 0.0 0.0 0.00 0.00 0.00 86 1013.4
20260906122003 25 0 0.0 0.0 0.00 0.00 0.00 86 1013.3
20260906121714 25 0 0.0 0.0 0.00 0.00 0.00 86 1013.4
20260906121003 25 0 0.0 0.0 0.00 0.00 0.00 86 1013.2
20260906120714 25 0 0.0 0.0 0.00 0.00 0.00 86 1013.1
20260906120003 25 0 0.0 0.0 0.00 0.00 0.00 86 1013.1
20260906115503 25 0 0.0 0.0 0.00 0.00 0.00 86 1013.0
20260906115003 25 0 0.0 0.0 0.00 0.00 0.00 86 1013.0
20260906114503 25 0 0.0 0.0 0.00 0.00 0.00 86 1013.0
20260906114003 25 0 0.0 0.0 0.00 0.00 0.00 86 1013.0
20260906113503 25 0 0.0 0.0 0.00 0.00 0.00 85 1012.9
20260906113212 25 0 0.0 0.0 0.00 0.00 0.00 85 1012.9
20260906112503 25 0 0.0 0.0 0.00 0.00 0.00 85 1012.9
20260906112003 25 0 0.0 0.0 0.00 0.00 0.00 86 1012.8
20260906111713 25 0 0.0 0.0 0.00 0.00 0.00 85 1012.8
20260906111003 25 0 0.0 0.0 0.00 0.00 0.00 86 1012.8
20260906110503 25 0 0.0 0.0 0.00 0.00 0.00 86 1012.8
20260906110003 25 0 0.0 0.0 0.00 0.00 0.00 85 1012.6
20260906105503 25 0 0.0 0.0 0.00 0.00 0.00 85 1012.6
20260906105003 25 0 0.0 0.0 0.00 0.00 0.00 85 1012.6
20260906104503 25 0 0.0 0.0 0.00 0.00 0.00 85 1012.5
20260906104003 25 0 0.0 0.0 0.00 0.00 0.00 84 1012.4
20260906103503 25 0 0.0 0.0 0.00 0.00 0.00 84 1012.5
20260906103003 25 0 0.0 0.0 0.00 0.00 0.00 84 1012.4
20260906102503 26 0 0.0 0.0 0.00 0.00 0.00 83 1012.5
20260906102003 26 0 0.0 0.0 0.00 0.00 0.00 83 1012.5
20260906101713 26 0 0.0 0.0 0.00 0.00 0.00 83 1012.5
20260906101003 26 0 0.0 0.0 0.00 0.00 0.00 83 1012.5
20260906100503 26 0 0.0 0.0 0.00 0.00 0.00 82 1012.4
20260906100003 26 0 0.0 0.0 0.00 0.00 0.00 82 1012.4
20260906095713 26 0 0.0 0.0 0.00 0.00 0.00 82 1012.4
20260906095003 26 0 0.0 0.0 0.00 0.00 0.00 82 1012.3
20260906094503 26 0 0.0 0.0 0.00 0.00 0.00 81 1012.2
20260906094003 26 0 0.0 0.0 0.00 0.00 0.00 80 1012.2
20260906093713 26 0 0.0 0.0 0.00 0.00 0.00 80 1012.2
20260906093214 26 0 0.0 0.0 0.00 0.00 0.00 80 1012.1
20260906092503 26 0 0.0 0.0 0.00 0.00 0.00 80 1012.1
20260906092003 27 0 0.0 0.0 0.00 0.00 0.00 79 1012.2
20260906091503 27 0 0.0 0.0 0.00 0.00 0.00 79 1012.1
20260906091003 27 0 0.0 0.0 0.00 0.00 0.00 78 1011.9
20260906090503 27 0 0.0 0.0 0.00 0.00 0.00 77 1011.9
20260906090003 27 157 0.0 3.2 0.00 0.00 0.00 77 1012.0
20260906085503 27 160 0.0 3.2 0.00 0.00 0.00 76 1012.0
20260906085003 27 152 1.6 4.8 0.00 0.00 0.00 76 1011.9
20260906084503 27 132 1.6 9.7 0.00 0.00 0.00 76 1011.9
20260906084213 27 125 1.6 9.7 0.00 0.00 0.00 76 1011.9
20260906083503 27 111 1.6 4.8 0.00 0.00 0.00 76 1012.0
20260906083003 27 111 1.6 4.8 0.00 0.00 0.00 76 1011.9
20260906082503 28 126 3.2 6.4 0.00 0.00 0.00 76 1011.8
20260906082003 28 142 3.2 6.4 0.00 0.00 0.00 75 1011.8
20260906081503 28 143 1.6 6.4 0.00 0.00 0.00 75 1011.7
20260906081003 28 135 3.2 8.0 0.00 0.00 0.00 75 1011.6
20260906080503 28 142 3.2 8.0 0.00 0.00 0.00 75 1011.7
20260906080003 28 146 3.2 6.4 0.00 0.00 0.00 74 1011.8
20260906075503 28 129 3.2 9.7 0.00 0.00 0.00 74 1011.9
20260906075003 28 120 3.2 9.7 0.00 0.00 0.00 74 1012.0
20260906074503 28 118 1.6 6.4 0.00 0.00 0.00 74 1012.1
20260906074003 28 124 1.6 11.3 0.00 0.00 0.00 74 1012.1
20260906073503 28 128 3.2 11.3 0.00 0.00 0.00 73 1012.1
20260906073003 28 121 1.6 6.4 0.00 0.00 0.00 74 1012.2
20260906072503 28 103 1.6 4.8 0.00 0.00 0.00 74 1012.2
20260906072003 28 104 1.6 4.8 0.00 0.00 0.00 74 1012.2
20260906071714 28 110 1.6 3.2 0.00 0.00 0.00 74 1012.1
20260906071213 28 124 1.6 4.8 0.00 0.00 0.00 73 1012.1
20260906070714 28 128 1.6 4.8 0.00 0.00 0.00 73 1012.0
20260906070003 28 142 1.6 4.8 0.00 0.00 0.00 74 1012.1
20260906065714 28 146 1.6 4.8 0.00 0.00 0.00 74 1012.1
20260906065003 28 133 1.6 4.8 0.00 0.00 0.00 73 1012.0
20260906064503 28 129 1.6 4.8 0.00 0.00 0.00 73 1012.1
20260906064213 28 125 1.6 4.8 0.00 0.00 0.00 73 1012.2
20260906063503 28 116 1.6 6.4 0.00 0.00 0.00 73 1012.3
20260906063003 28 129 1.6 6.4 0.00 0.00 0.00 73 1012.3
20260906062503 28 152 1.6 4.8 0.00 0.00 0.00 73 1012.2
20260906062003 28 140 1.6 4.8 0.00 0.00 0.00 73 1012.2
20260906061714 28 137 1.6 4.8 0.00 0.00 0.00 73 1012.2
20260906061003 28 134 1.6 4.8 0.00 0.00 0.00 72 1012.2
20260906060503 28 133 0.0 4.8 0.00 0.00 0.00 72 1012.3
20260906060003 29 134 0.0 4.8 0.00 0.00 0.00 72 1012.3
20260906055713 29 134 0.0 4.8 0.00 0.00 0.00 72 1012.4
20260906055212 29 134 0.0 3.2 0.00 0.00 0.00 72 1012.3
20260906054503 29 134 0.0 3.2 0.00 0.00 0.00 71 1012.3
20260906054003 29 134 0.0 3.2 0.00 0.00 0.00 70 1012.3
20260906053503 29 134 0.0 3.2 0.00 0.00 0.00 70 1012.2
20260906053003 30 134 0.0 3.2 0.00 0.00 0.00 70 1012.3
20260906052713 30 134 0.0 3.2 0.00 0.00 0.00 70 1012.3
20260906052003 30 135 1.6 6.4 0.00 0.00 0.00 69 1012.4
20260906051503 30 139 1.6 6.4 0.00 0.00 0.00 69 1012.4
20260906051003 30 134 1.6 6.4 0.00 0.00 0.00 69 1012.4
20260906050713 30 125 1.6 6.4 0.00 0.00 0.00 69 1012.3
20260906050003 30 114 1.6 4.8 0.00 0.00 0.00 69 1012.4
20260906045713 30 121 3.2 6.4 0.00 0.00 0.00 69 1012.4
20260906045003 30 122 1.6 6.4 0.00 0.00 0.00 68 1012.2
20260906044503 30 104 0.0 3.2 0.00 0.00 0.00 68 1012.2
20260906044214 30 104 0.0 3.2 0.00 0.00 0.00 67 1012.2
20260906043503 30 104 0.0 3.2 0.00 0.00 0.00 66 1012.2
20260906043003 30 104 0.0 3.2 0.00 0.00 0.00 66 1012.3
20260906042503 30 104 1.6 6.4 0.00 0.00 0.00 66 1012.2
20260906042003 30 119 1.6 8.0 0.00 0.00 0.00 66 1012.1
20260906041503 30 137 1.6 8.0 0.00 0.00 0.00 65 1012.1
20260906041214 31 140 1.6 4.8 0.00 0.00 0.00 65 1012.1
20260906040503 31 132 1.6 8.0 0.00 0.00 0.00 65 1012.1
20260906040003 31 126 3.2 6.4 0.00 0.00 0.00 64 1012.0
20260906035503 31 122 3.2 8.0 0.00 0.00 0.00 64 1012.0
20260906035003 31 109 3.2 9.7 0.00 0.00 0.00 64 1012.1
20260906034503 31 111 3.2 9.7 0.00 0.00 0.00 63 1012.2
20260906034003 31 123 3.2 9.7 0.00 0.00 0.00 63 1012.2
20260906033503 31 112 3.2 9.7 0.00 0.00 0.00 63 1012.1
20260906033003 31 109 3.2 9.7 0.00 0.00 0.00 62 1012.1
20260906032503 31 131 3.2 11.3 0.00 0.00 0.00 62 1012.1
20260906032003 31 130 3.2 11.3 0.00 0.00 0.00 61 1012.1
20260906031503 31 123 4.8 14.5 0.00 0.00 0.00 61 1012.0
20260906031003 31 118 4.8 14.5 0.00 0.00 0.00 61 1012.1
20260906030712 31 114 4.8 14.5 0.00 0.00 0.00 61 1012.1
20260906030003 31 110 4.8 12.9 0.00 0.00 0.00 61 1012.2
20260906025503 31 108 4.8 12.9 0.00 0.00 0.00 60 1012.1
20260906025213 32 107 4.8 12.9 0.00 0.00 0.00 60 1012.1
20260906024503 32 114 6.4 17.7 0.00 0.00 0.00 60 1011.9
20260906024003 32 112 6.4 17.7 0.00 0.00 0.00 59 1011.9
20260906023503 32 110 4.8 14.5 0.00 0.00 0.00 59 1011.8
20260906023003 32 112 4.8 11.3 0.00 0.00 0.00 59 1011.6
20260906022503 32 114 4.8 14.5 0.00 0.00 0.00 58 1011.5
20260906022213 32 116 4.8 14.5 0.00 0.00 0.00 58 1011.5
20260906021714 32 117 4.8 14.5 0.00 0.00 0.00 58 1011.5
20260906021003 32 101 4.8 9.7 0.00 0.00 0.00 57 1011.3
20260906020503 32 92 4.8 12.9 0.00 0.00 0.00 56 1011.2
20260906020003 33 83 4.8 16.1 0.00 0.00 0.00 56 1011.2
20260906015503 33 94 6.4 16.1 0.00 0.00 0.00 55 1011.1
20260906015004 33 110 4.8 16.1 0.00 0.00 0.00 54 1011.0
20260906014503 33 100 3.2 16.1 0.00 0.00 0.00 51 1010.9
20260906014003 33 51 1.6 3.2 0.00 0.00 0.00 49 1010.8
20260906013503 33 51 1.6 3.2 0.00 0.00 0.00 49 1010.6
20260906013003 33 50 1.6 3.2 0.00 0.00 0.00 48 1010.5
20260906012503 34 49 0.0 3.2 0.00 0.00 0.00 48 1010.6
20260906012003 34 48 1.6 4.8 0.00 0.00 0.00 48 1010.4
20260906011503 34 45 1.6 4.8 0.00 0.00 0.00 47 1010.3
20260906011003 34 44 1.6 6.4 0.00 0.00 0.00 47 1010.3
20260906010503 35 49 1.6 6.4 0.00 0.00 0.00 46 1010.3
20260906010003 35 59 1.6 4.8 0.00 0.00 0.00 46 1010.4
20260906005503 35 64 1.6 6.4 0.00 0.00 0.00 46 1010.3
20260906005212 35 67 1.6 6.4 0.00 0.00 0.00 45 1010.3
20260906004503 35 67 3.2 8.0 0.00 0.00 0.00 45 1010.2
20260906004003 35 58 3.2 8.0 0.00 0.00 0.00 44 1010.2
20260906003713 35 58 3.2 8.0 0.00 0.00 0.00 44 1010.3
20260906003003 35 59 3.2 8.0 0.00 0.00 0.00 44 1010.3
20260906002503 35 62 1.6 8.0 0.00 0.00 0.00 44 1010.4
20260906002003 35 58 1.6 6.4 0.00 0.00 0.00 44 1010.3
20260906001503 36 56 3.2 6.4 0.00 0.00 0.00 44 1010.4
20260906001003 36 57 3.2 6.4 0.00 0.00 0.00 44 1010.3
20260906000503 36 57 3.2 6.4 0.00 0.00 0.00 44 1010.3
20260906000003 36 59 3.2 6.4 0.00 0.00 0.00 44 1010.1
20260905235503 36 56 3.2 8.0 0.00 0.00 0.00 44 1010.1
20260905235003 36 52 3.2 8.0 0.00 0.00 0.00 43 1010.1
20260905234503 36 57 4.8 9.7 0.00 0.00 0.00 43 1010.1
20260905234003 36 73 3.2 9.7 0.00 0.00 0.00 44 1010.0
20260905233503 36 74 3.2 9.7 0.00 0.00 0.00 44 1010.1
20260905233003 36 60 3.2 6.4 0.00 0.00 0.00 43 1010.2
20260905232713 36 53 3.2 11.3 0.00 0.00 0.00 43 1010.1
20260905232003 36 52 3.2 11.3 0.00 0.00 0.00 43 1010.1
20260905231713 37 46 3.2 11.3 0.00 0.00 0.00 43 1010.1
20260905231003 37 26 1.6 4.8 0.00 0.00 0.00 42 1010.0
20260905230503 37 49 1.6 8.0 0.00 0.00 0.00 43 1010.1